Tracking 31027 objects as of 19-Jul-2025
HD Live streaming from Space Station
objects crossing your sky now

ONEWEB-0300

Track ONEWEB-0300 now!
10-day predictions
ONEWEB-0300 is classified as:


NORAD ID: 49089
Int'l Code: 2021-075Q
Perigee: 1,219.4 km
Apogee: 1,222.3 km
Inclination: 87.9 °
Period: 109.7 minutes
Semi major axis: 7591 km
RCS: Unknown
Launch date: August 21, 2021
Source: United Kingdom (UK)
Launch site: TYURATAM MISSILE AND SPACE COMPLEX (TTMTR)
Your satellite tracking list
COSMOS 2502
Track 1 satellite(s)




NASA's NSSDC Master Catalog

Two Line Element Set (TLE):
1 49089U 21075Q   25199.56634732 -.00000458  00000-0 -13083-2 0  9993
2 49089  87.8855  56.9869 0001910  92.9874 267.1473 13.12443019191443
Source of the keplerian elements: AFSPC